RTAF01 RJOO-RJTT

Flight info

Callsign RTAF01
Flight time N/A
Altitude 27000
Route ASUKA SHTLE Y71 XAC
Aircraft A346/H-SDE2E3FGHIJ3J4J5M1RWXY/LB1D1

Departure

Time 2026-04-27 13:45
Airport Osaka Itami International Airport (RJOO)

Arrival

Time N/A
Airport Tokyo Haneda International Airport (RJTT)
Time Latitude Longitude Altitude Speed Heading
2026-04-27 13:07 34.79574 135.43391 65 ft 0 kts 133°
2026-04-27 13:29 34.79578 135.43384 65 ft 2 kts 130°
2026-04-27 13:29 34.79590 135.43372 65 ft 2 kts 150°
2026-04-27 13:30 34.79603 135.43364 65 ft 2 kts 161°
2026-04-27 13:30 34.79613 135.43361 65 ft 2 kts 171°
2026-04-27 13:30 34.79628 135.43359 65 ft 2 kts 186°
2026-04-27 13:30 34.79648 135.43367 65 ft 2 kts 206°
2026-04-27 13:31 34.79661 135.43376 65 ft 1 kts 221°
2026-04-27 13:31 34.79665 135.43381 65 ft 0 kts 224°
2026-04-27 13:34 34.79664 135.43381 65 ft 1 kts 225°
2026-04-27 13:35 34.79606 135.43327 65 ft 13 kts 207°
2026-04-27 13:35 34.79571 135.43308 65 ft 7 kts 203°
2026-04-27 13:35 34.79454 135.43243 65 ft 19 kts 208°
2026-04-27 13:35 34.79325 135.43298 65 ft 24 kts 136°
2026-04-27 13:36 34.79180 135.43465 65 ft 31 kts 135°
2026-04-27 13:36 34.79012 135.43674 65 ft 37 kts 134°
2026-04-27 13:36 34.78884 135.43826 65 ft 40 kts 135°
2026-04-27 13:36 34.78669 135.44084 65 ft 34 kts 135°
2026-04-27 13:37 34.78528 135.44257 65 ft 29 kts 135°
2026-04-27 13:37 34.78264 135.44331 65 ft 21 kts 179°
2026-04-27 13:37 34.78220 135.44333 65 ft 0 kts 176°
2026-04-27 13:38 34.78217 135.44333 65 ft 2 kts 175°
2026-04-27 13:38 34.78168 135.44356 65 ft 12 kts 144°
2026-04-27 13:38 34.78046 135.44496 65 ft 23 kts 134°
2026-04-27 13:39 34.77918 135.44655 65 ft 29 kts 134°
2026-04-27 13:39 34.77761 135.44844 65 ft 25 kts 135°
2026-04-27 13:39 34.77662 135.44969 65 ft 23 kts 137°
2026-04-27 13:39 34.77533 135.45116 65 ft 27 kts 135°
2026-04-27 13:40 34.77449 135.45215 65 ft 23 kts 135°
2026-04-27 13:40 34.77299 135.45270 65 ft 17 kts 216°
2026-04-27 13:40 34.77281 135.45244 65 ft 0 kts 243°
2026-04-27 13:40 34.77276 135.45232 65 ft 1 kts 246°
2026-04-27 13:41 34.77300 135.45291 66 ft 1 kts 240°
2026-04-27 13:41 34.77303 135.45296 65 ft 1 kts 240°
2026-04-27 13:43 34.77262 135.45226 65 ft 10 kts 238°
2026-04-27 13:44 34.77281 135.45119 65 ft 22 kts 309°
2026-04-27 13:44 34.77458 135.44904 65 ft 66 kts 318°
2026-04-27 13:44 34.78012 135.44235 66 ft 154 kts 317°
2026-04-27 13:44 34.78594 135.43558 180 ft 189 kts 315°
2026-04-27 13:45 34.79499 135.42363 997 ft 193 kts 302°
2026-04-27 13:45 34.79783 135.40355 2264 ft 185 kts 258°
2026-04-27 13:45 34.79231 135.38902 2848 ft 203 kts 227°
2026-04-27 13:45 34.78048 135.37911 3471 ft 220 kts 195°
2026-04-27 13:46 34.76473 135.37872 4120 ft 238 kts 160°
2026-04-27 13:46 34.75496 135.38525 4550 ft 250 kts 136°
2026-04-27 13:46 34.74589 135.40352 5221 ft 266 kts 101°
2026-04-27 13:46 34.74708 135.42596 6122 ft 273 kts 71°
2026-04-27 13:47 34.75679 135.45418 7489 ft 278 kts 64°
2026-04-27 13:47 34.76517 135.47514 8471 ft 282 kts 63°
2026-04-27 13:47 34.77396 135.49674 9467 ft 286 kts 63°
2026-04-27 13:47 34.78277 135.51828 10425 ft 291 kts 63°
2026-04-27 13:48 34.78824 135.53343 10899 ft 300 kts 73°
2026-04-27 13:48 34.79072 135.55908 11441 ft 319 kts 91°
2026-04-27 13:48 34.78919 135.58685 11995 ft 339 kts 95°
2026-04-27 13:48 34.78630 135.62634 12696 ft 365 kts 94°
2026-04-27 13:49 34.78495 135.64737 13034 ft 378 kts 94°
2026-04-27 13:49 34.78315 135.67976 13761 ft 390 kts 94°
2026-04-27 13:49 34.78154 135.71246 14704 ft 394 kts 93°
2026-04-27 13:49 34.78001 135.74561 15645 ft 399 kts 93°
2026-04-27 13:50 34.77800 135.79074 16817 ft 406 kts 93°
2026-04-27 13:50 34.77700 135.81361 17387 ft 409 kts 93°
2026-04-27 13:50 34.77548 135.84857 18235 ft 414 kts 93°
2026-04-27 13:50 34.77345 135.89502 19315 ft 421 kts 93°
2026-04-27 13:51 34.77240 135.91876 19847 ft 424 kts 93°
2026-04-27 13:51 34.77080 135.95477 20630 ft 429 kts 93°
2026-04-27 13:51 34.76919 135.99130 21393 ft 434 kts 92°
2026-04-27 13:51 34.76870 136.04034 22369 ft 441 kts 88°
2026-04-27 13:52 34.76958 136.06494 22841 ft 444 kts 86°
2026-04-27 13:52 34.77200 136.10260 23542 ft 448 kts 85°
2026-04-27 13:52 34.77564 136.15309 24438 ft 454 kts 85°
2026-04-27 13:52 34.77616 136.16022 24561 ft 455 kts 85°
2026-04-27 13:53 34.78270 136.25035 26046 ft 465 kts 85°
2026-04-27 13:53 34.78459 136.27663 26450 ft 468 kts 85°
2026-04-27 13:53 34.78738 136.31599 26848 ft 472 kts 85°
2026-04-27 13:54 34.79113 136.36899 26971 ft 472 kts 85°
2026-04-27 13:54 34.79298 136.39545 26975 ft 472 kts 85°
2026-04-27 13:54 34.79575 136.43492 26978 ft 472 kts 85°
2026-04-27 13:54 34.79852 136.47473 26978 ft 472 kts 85°
2026-04-27 13:55 34.80128 136.51445 26978 ft 472 kts 85°
2026-04-27 13:55 34.80405 136.55449 26978 ft 472 kts 85°
2026-04-27 13:55 34.80676 136.59386 26978 ft 472 kts 85°
2026-04-27 13:55 34.80950 136.63393 26978 ft 472 kts 85°
2026-04-27 13:56 34.81220 136.67346 26978 ft 472 kts 85°
2026-04-27 13:56 34.81577 136.72627 26979 ft 472 kts 85°
2026-04-27 13:56 34.81756 136.75278 26979 ft 472 kts 85°
2026-04-27 13:56 34.82113 136.80559 26979 ft 472 kts 85°
2026-04-27 13:57 34.82380 136.84549 26979 ft 472 kts 85°
2026-04-27 13:57 34.82556 136.87205 26979 ft 472 kts 85°
2026-04-27 13:57 34.82780 136.92526 26978 ft 472 kts 89°
2026-04-27 13:57 34.82707 136.96480 26978 ft 472 kts 93°
2026-04-27 13:58 34.82539 136.99156 26978 ft 472 kts 96°
2026-04-27 13:58 34.82141 137.03126 26979 ft 472 kts 97°
2026-04-27 13:58 34.81553 137.08368 26979 ft 472 kts 98°
2026-04-27 13:58 34.81104 137.12311 26978 ft 472 kts 98°
2026-04-27 13:59 34.80803 137.14957 26978 ft 472 kts 98°
2026-04-27 13:59 34.80208 137.20221 26978 ft 472 kts 98°
2026-04-27 13:59 34.79911 137.22852 26978 ft 472 kts 97°
2026-04-27 13:59 34.79313 137.28155 26978 ft 472 kts 97°
2026-04-27 14:00 34.78871 137.32071 26978 ft 472 kts 97°
2026-04-27 14:00 34.78426 137.36005 26978 ft 472 kts 97°
2026-04-27 14:00 34.77975 137.39975 26978 ft 472 kts 97°
2026-04-27 14:00 34.77676 137.42607 26978 ft 472 kts 97°
2026-04-27 14:01 34.77079 137.47858 26978 ft 472 kts 97°
2026-04-27 14:01 34.76778 137.50497 26978 ft 472 kts 97°
2026-04-27 14:01 34.76324 137.54475 26978 ft 472 kts 97°
2026-04-27 14:01 34.75872 137.58437 26978 ft 472 kts 97°
2026-04-27 14:02 34.75420 137.62375 26978 ft 472 kts 97°
2026-04-27 14:02 34.74807 137.67682 26978 ft 472 kts 98°
2026-04-27 14:02 34.74520 137.70320 26978 ft 472 kts 97°
2026-04-27 14:02 34.74015 137.75584 26979 ft 472 kts 96°
2026-04-27 14:03 34.73770 137.78236 26979 ft 472 kts 96°
2026-04-27 14:03 34.73405 137.82202 26979 ft 472 kts 96°
2026-04-27 14:03 34.73035 137.86179 26979 ft 472 kts 96°
2026-04-27 14:03 34.72661 137.90150 26979 ft 472 kts 96°
2026-04-27 14:04 34.72284 137.94106 26979 ft 472 kts 97°
2026-04-27 14:04 34.71906 137.98018 26979 ft 472 kts 97°
2026-04-27 14:04 34.71584 138.02031 26978 ft 472 kts 94°
2026-04-27 14:04 34.71428 138.05998 26979 ft 472 kts 91°
2026-04-27 14:05 34.71411 138.09973 26979 ft 472 kts 90°
2026-04-27 14:05 34.71426 138.13937 26979 ft 472 kts 89°
2026-04-27 14:05 34.71447 138.17902 26979 ft 472 kts 89°
2026-04-27 14:05 34.71473 138.23256 26978 ft 472 kts 89°
2026-04-27 14:06 34.71489 138.27191 26978 ft 472 kts 89°
2026-04-27 14:06 34.71502 138.31215 26978 ft 472 kts 89°
2026-04-27 14:06 34.71509 138.33824 26978 ft 472 kts 89°
2026-04-27 14:06 34.71518 138.37839 26978 ft 472 kts 89°
2026-04-27 14:07 34.71526 138.41795 26978 ft 472 kts 89°
2026-04-27 14:07 34.71532 138.45813 26978 ft 472 kts 89°
2026-04-27 14:07 34.71539 138.51076 26978 ft 472 kts 89°
2026-04-27 14:07 34.71542 138.53738 26978 ft 472 kts 89°
2026-04-27 14:08 34.71545 138.57742 26978 ft 472 kts 89°
2026-04-27 14:08 34.71547 138.61702 26978 ft 472 kts 89°
2026-04-27 14:08 34.71549 138.67059 26978 ft 472 kts 90°
2026-04-27 14:08 34.71550 138.69679 26979 ft 472 kts 90°
2026-04-27 14:09 34.71549 138.73651 26979 ft 472 kts 90°
2026-04-27 14:09 34.71546 138.77675 26979 ft 472 kts 90°
2026-04-27 14:09 34.71539 138.81651 26979 ft 472 kts 90°
2026-04-27 14:09 34.71522 138.86964 26979 ft 472 kts 90°
2026-04-27 14:10 34.71512 138.89575 26958 ft 470 kts 90°
2026-04-27 14:10 34.71497 138.93524 26586 ft 463 kts 90°
2026-04-27 14:10 34.71481 138.97435 25834 ft 461 kts 90°
2026-04-27 14:10 34.71464 139.01274 25103 ft 458 kts 90°
2026-04-27 14:11 34.71441 139.05141 24430 ft 454 kts 90°
2026-04-27 14:11 34.71419 139.08893 23789 ft 449 kts 90°
2026-04-27 14:11 34.71397 139.12654 23142 ft 445 kts 90°
2026-04-27 14:11 34.71375 139.16393 22496 ft 440 kts 90°
2026-04-27 14:12 34.71354 139.20082 21859 ft 436 kts 90°
2026-04-27 14:12 34.71333 139.23743 21226 ft 432 kts 90°
2026-04-27 14:12 34.71304 139.28601 20385 ft 427 kts 90°
2026-04-27 14:12 34.71289 139.30951 19978 ft 424 kts 90°
2026-04-27 14:13 34.71265 139.34532 19352 ft 420 kts 90°
2026-04-27 14:13 34.71239 139.38091 18727 ft 416 kts 90°
2026-04-27 14:13 34.71230 139.41551 18115 ft 413 kts 89°
2026-04-27 14:13 34.71313 139.45050 17493 ft 409 kts 88°
2026-04-27 14:14 34.71411 139.48431 16883 ft 405 kts 88°
2026-04-27 14:14 34.71549 139.52975 16070 ft 400 kts 88°
2026-04-27 14:14 34.71616 139.55220 15665 ft 398 kts 88°
2026-04-27 14:14 34.71749 139.59659 14857 ft 393 kts 88°
2026-04-27 14:15 34.71813 139.61838 14458 ft 391 kts 88°
2026-04-27 14:15 34.71910 139.65152 13849 ft 388 kts 88°
2026-04-27 14:15 34.72004 139.68399 13250 ft 384 kts 88°
2026-04-27 14:15 34.72096 139.71613 12654 ft 381 kts 88°
2026-04-27 14:16 34.72188 139.74841 12053 ft 378 kts 88°
2026-04-27 14:16 34.72306 139.79036 11267 ft 374 kts 88°
2026-04-27 14:16 34.72365 139.81130 10872 ft 371 kts 88°
2026-04-27 14:16 34.72481 139.85289 10150 ft 365 kts 88°
2026-04-27 14:17 34.72536 139.87289 9999 ft 356 kts 88°
2026-04-27 14:17 34.72643 139.91222 9705 ft 339 kts 88°
2026-04-27 14:17 34.72694 139.93105 9563 ft 331 kts 88°
2026-04-27 14:17 34.72768 139.95851 9360 ft 320 kts 88°
2026-04-27 14:18 34.72840 139.98503 9164 ft 309 kts 88°
2026-04-27 14:18 34.72930 140.01907 8915 ft 295 kts 88°
2026-04-27 14:18 34.72974 140.03557 8793 ft 288 kts 88°
2026-04-27 14:18 34.73036 140.05957 8546 ft 282 kts 88°
2026-04-27 14:19 34.73096 140.08319 8180 ft 280 kts 88°
2026-04-27 14:19 34.73157 140.10683 7797 ft 279 kts 87°
2026-04-27 14:19 34.73349 140.13014 7422 ft 278 kts 80°
2026-04-27 14:19 34.73989 140.16040 6927 ft 275 kts 70°
2026-04-27 14:20 34.74734 140.18149 6562 ft 274 kts 62°
2026-04-27 14:20 34.75650 140.20186 6193 ft 272 kts 60°
2026-04-27 14:20 34.76267 140.21504 5952 ft 272 kts 60°
2026-04-27 14:20 34.77204 140.23505 5586 ft 270 kts 60°
2026-04-27 14:21 34.78424 140.26129 5107 ft 268 kts 60°
2026-04-27 14:21 34.79037 140.27454 4866 ft 267 kts 60°
2026-04-27 14:21 34.79939 140.29410 4510 ft 266 kts 60°
2026-04-27 14:21 34.80926 140.31280 4172 ft 264 kts 53°
2026-04-27 14:22 34.82103 140.32983 4074 ft 264 kts 45°
2026-04-27 14:22 34.84092 140.34650 4046 ft 264 kts 12°
2026-04-27 14:22 34.85905 140.34608 4063 ft 265 kts 342°
2026-04-27 14:22 34.87034 140.33974 4065 ft 264 kts 327°
2026-04-27 14:23 34.88533 140.32719 4075 ft 265 kts 324°
2026-04-27 14:23 34.90052 140.31419 4066 ft 265 kts 325°
2026-04-27 14:23 34.91544 140.30154 4065 ft 265 kts 325°
2026-04-27 14:23 34.93037 140.28902 4057 ft 252 kts 325°
2026-04-27 14:24 34.94890 140.27361 4054 ft 231 kts 326°
2026-04-27 14:24 34.95760 140.26640 4053 ft 221 kts 326°
2026-04-27 14:24 34.97441 140.25252 4064 ft 219 kts 326°
2026-04-27 14:24 34.98268 140.24570 4064 ft 219 kts 326°
2026-04-27 14:25 34.99529 140.23531 4064 ft 219 kts 326°
2026-04-27 14:25 35.00786 140.22494 4064 ft 219 kts 326°
2026-04-27 14:25 35.02061 140.21445 4064 ft 219 kts 326°
2026-04-27 14:25 35.03315 140.20412 4065 ft 219 kts 326°
2026-04-27 14:26 35.04555 140.19391 4068 ft 212 kts 326°